Location: Ferintosh
(52.7647°N, 112.9692°W)
Time: 18:34:53
(UTC+00:00)

Explorer 7 - Pass Details

Date: 25 May 2024
Orbit: 466 x 622 km, 50.3° (Epoch: 15 June)

Event Time Altitude Azimuth Distance (km) Brightness Sun altitude
Rises 10:55:08 0° 278° (W) 2,651 9.9 -3.7°
Reaches altitude 10° 10:57:42 10° 262° (W) 1,791 8.9 -3.4°
Maximum altitude 11:00:46 21° 213° (SSW) 1,276 8.1 -3.1°
Drops below altitude 10° 11:03:57 10° 165° (SSE) 1,860 9.3 -2.7°
Sets 11:06:40 0° 149° (SSE) 2,787 10.3 -2.4°
